Paris / Charles De Gaulle, France

3:16 PM CET on November 24, 2017 (GMT +0100)
Charles de Gaulle

Weather History for LFPG - June, 2013

Change the Weather History Date:

Monday, June 24, 2013

  Actual Average Record
Temperature  
Mean Temperature 56 °F -  
Max Temperature 60 °F 73 °F 89 °F (2005)
Min Temperature 53 °F 56 °F 48 °F (2015)
Degree Days  
Heating Degree Days 8    
Growing Degree Days 6 (Base 50)    
Moisture  
Dew Point 48 °F    
Average Humidity 74    
Maximum Humidity 88    
Minimum Humidity 55    
Precipitation  
Precipitation 0.00 in - - ()
Sea Level Pressure  
Sea Level Pressure 30.21 in    
Wind  
Wind Speed 10 mph ()    
Max Wind Speed 14 mph    
Max Gust Speed -    
Visibility 6.2 miles    
Events      
Averages and records for this station are not official NWS values.
T = Trace of Precipitation, MM = Missing Value Source: Averaged Metar Reports

Daily Weather History Graph

Daily Weather History Graph

Search for Another Location

Airport or City:

Trip Planner

Search our weather history database for the weather conditions in past years. The results will help you decide how hot, cold, wet, or windy it might be!

Date:

Astronomy

Jun. 24, 2013 Rise Set
Actual Time 5:46 AM CEST 9:58 PM CEST
Civil Twilight 5:03 AM CEST 10:41 PM CEST
Nautical Twilight 4:02 AM CEST 11:42 PM CEST
Astronomical Twilight 2:24 AM CEST 1:20 AM CEST
Moon 10:36 PM CEST 7:04 AM CEST
Length of Visible Light 17h 37m
Length of Day
16h 12m
Full, 99% of the Moon is Illuminated
Jun 24
Full
Jun 30
Last Quarter
Jul 8
New
Jul 16
First Quarter
Jul 22
Full

Hourly Weather History & Observations

Time (CEST) Temp. Dew Point Humidity Pressure Visibility Wind Dir Wind Speed Gust Speed Precip Events Conditions
12:00 AM 55.4 °F 50.0 °F 82% 30.09 in 6.2 mi West 13.8 mph - N/A   Mostly Cloudy
12:30 AM 55.4 °F 50.0 °F 82% 30.09 in 6.2 mi West 11.5 mph - N/A   Mostly Cloudy
1:00 AM 55.4 °F 50.0 °F 82% 30.09 in 6.2 mi WSW 11.5 mph - N/A   Mostly Cloudy
1:30 AM 55.4 °F 50.0 °F 82% 30.12 in 6.2 mi West 11.5 mph - N/A   Mostly Cloudy
2:00 AM 55.4 °F 50.0 °F 82% 30.12 in 6.2 mi West 11.5 mph - N/A   Mostly Cloudy
2:30 AM 55.4 °F 50.0 °F 82% 30.12 in 6.2 mi West 10.4 mph - N/A   Mostly Cloudy
3:00 AM 55.4 °F 50.0 °F 82% 30.12 in 6.2 mi West 11.5 mph - N/A   Mostly Cloudy
3:30 AM 53.6 °F 50.0 °F 88% 30.12 in 6.2 mi WSW 10.4 mph - N/A   Mostly Cloudy
4:00 AM 53.6 °F 50.0 °F 88% 30.12 in 6.2 mi West 9.2 mph - N/A   Scattered Clouds
4:30 AM 53.6 °F 50.0 °F 88% 30.12 in 6.2 mi West 9.2 mph - N/A   Scattered Clouds
5:00 AM 53.6 °F 50.0 °F 88% 30.12 in 6.2 mi West 9.2 mph - N/A   Mostly Cloudy
5:30 AM 53.6 °F 50.0 °F 88% 30.15 in 6.2 mi West 10.4 mph - N/A   Mostly Cloudy
6:00 AM 53.6 °F 50.0 °F 88% 30.15 in 6.2 mi West 10.4 mph - N/A   Scattered Clouds
6:30 AM 53.6 °F 50.0 °F 88% 30.15 in 6.2 mi West 10.4 mph - N/A   Mostly Cloudy
7:00 AM 53.6 °F 50.0 °F 88% 30.15 in 6.2 mi West 8.1 mph - N/A   Mostly Cloudy
7:30 AM 53.6 °F 50.0 °F 88% 30.15 in 6.2 mi West 12.7 mph - N/A   Mostly Cloudy
8:00 AM 55.4 °F 50.0 °F 82% 30.18 in 6.2 mi West 10.4 mph - N/A   Mostly Cloudy
8:30 AM 55.4 °F 50.0 °F 82% 30.18 in 6.2 mi West 13.8 mph - N/A   Mostly Cloudy
9:00 AM 55.4 °F 50.0 °F 82% 30.18 in 6.2 mi West 12.7 mph - N/A   Mostly Cloudy
9:30 AM 55.4 °F 50.0 °F 82% 30.18 in 6.2 mi West 13.8 mph - N/A   Mostly Cloudy
10:00 AM 55.4 °F 48.2 °F 77% 30.21 in 6.2 mi West 11.5 mph - N/A   Mostly Cloudy
10:30 AM 57.2 °F 50.0 °F 77% 30.21 in 6.2 mi West 9.2 mph - N/A   Mostly Cloudy
11:00 AM 57.2 °F 50.0 °F 77% 30.21 in 6.2 mi West 10.4 mph - N/A   Mostly Cloudy
11:30 AM 57.2 °F 48.2 °F 72% 30.21 in 6.2 mi West 11.5 mph - N/A   Mostly Cloudy
12:00 PM 59.0 °F 48.2 °F 67% 30.24 in 6.2 mi West 11.5 mph - N/A   Mostly Cloudy
12:30 PM 59.0 °F 48.2 °F 67% 30.24 in 6.2 mi WNW 10.4 mph - N/A   Mostly Cloudy
1:00 PM 59.0 °F 46.4 °F 63% 30.24 in 6.2 mi WNW 10.4 mph - N/A   Mostly Cloudy
1:30 PM 59.0 °F 46.4 °F 63% 30.24 in 6.2 mi West 11.5 mph - N/A   Mostly Cloudy
2:00 PM 59.0 °F 46.4 °F 63% 30.24 in 6.2 mi West 11.5 mph - N/A   Mostly Cloudy
2:30 PM 57.2 °F 44.6 °F 63% 30.24 in 6.2 mi West 10.4 mph - N/A   Mostly Cloudy
3:00 PM 57.2 °F 46.4 °F 67% 30.24 in 6.2 mi NW 8.1 mph - N/A   Mostly Cloudy
3:30 PM 57.2 °F 48.2 °F 72% 30.27 in 6.2 mi NW 6.9 mph - N/A   Mostly Cloudy
4:00 PM 57.2 °F 46.4 °F 67% 30.27 in 6.2 mi NW 8.1 mph - N/A   Mostly Cloudy
4:30 PM 59.0 °F 46.4 °F 63% 30.27 in - WNW 8.1 mph - N/A   Clear
5:00 PM 59.0 °F 46.4 °F 63% 30.27 in - NW 6.9 mph - N/A   Clear
5:30 PM 59.0 °F 46.4 °F 63% 30.27 in 6.2 mi NW 10.4 mph - N/A   Mostly Cloudy
6:00 PM 59.0 °F 46.4 °F 63% 30.27 in 6.2 mi NW 11.5 mph - N/A   Mostly Cloudy
6:30 PM 60.8 °F 46.4 °F 59% 30.27 in 6.2 mi NW 11.5 mph - N/A   Mostly Cloudy
7:00 PM 59.0 °F 44.6 °F 59% 30.27 in 6.2 mi NNW 10.4 mph - N/A   Mostly Cloudy
7:30 PM 60.8 °F 44.6 °F 55% 30.27 in 6.2 mi NW 10.4 mph - N/A   Mostly Cloudy
8:00 PM 59.0 °F 42.8 °F 55% 30.27 in 6.2 mi NW 10.4 mph - N/A   Mostly Cloudy
8:30 PM 57.2 °F 44.6 °F 63% 30.27 in 6.2 mi NW 9.2 mph - N/A   Mostly Cloudy
9:00 PM 57.2 °F 44.6 °F 63% 30.30 in 6.2 mi NW 6.9 mph - N/A   Mostly Cloudy
9:30 PM 57.2 °F 44.6 °F 63% 30.30 in 6.2 mi NW 4.6 mph - N/A   Mostly Cloudy
10:00 PM 55.4 °F 44.6 °F 67% 30.30 in - NNW 4.6 mph - N/A   Clear
10:30 PM 55.4 °F 44.6 °F 67% 30.30 in - NW 4.6 mph - N/A   Clear
11:00 PM 53.6 °F 44.6 °F 72% 30.30 in - NW 3.5 mph - N/A   Clear
11:30 PM 53.6 °F 44.6 °F 72% 30.33 in - WNW 3.5 mph - N/A   Clear